CDT,Max TemperatureF,Mean TemperatureF,Min TemperatureF,Max Dew PointF,MeanDew PointF,Min DewpointF,Max Humidity, Mean Humidity, Min Humidity, Max Sea Level PressureIn, Mean Sea Level PressureIn, Min Sea Level PressureIn, Max VisibilityMiles, Mean VisibilityMiles, Min VisibilityMiles, Max Wind SpeedMPH, Mean Wind SpeedMPH, Max Gust SpeedMPH,PrecipitationIn, CloudCover, Events, WindDirDegrees
2013-3-1,32,29,25,28,21,18,81,75,69,30.25,30.16,30.07,10,8,2,13,8,18,0.01,8,Snow,12
2013-3-2,28,21,14,18,12,9,80,61,42,30.27,30.24,30.19,10,10,10,15,7,21,T,3,,350
2013-3-3,33,22,10,16,11,6,88,64,39,30.23,30.16,30.10,10,10,7,9,3,12,0.00,0,,152
2013-3-4,37,32,27,27,23,13,85,68,50,30.11,29.99,29.91,10,8,1,20,13,30,0.02,7,Snow,109
2013-3-5,35,32,28,31,28,24,92,84,75,30.09,29.89,29.84,10,2,0,20,10,30,0.29,8,Fog-Rain-Snow,338
2013-3-6,30,27,24,23,21,19,81,72,63,30.38,30.30,30.12,10,10,10,18,9,25,0.00,7,,322
2013-3-7,34,30,25,25,23,20,81,73,64,30.45,30.41,30.37,10,10,7,12,5,14,0.00,5,,161
2013-3-8,44,35,25,34,28,21,88,75,62,30.46,30.39,30.25,10,10,7,16,9,21,0.00,0,,130
2013-3-9,51,44,37,41,36,29,86,73,59,30.24,30.01,29.79,10,8,2,20,12,25,0.45,7,Rain-Thunderstorm,159
2013-3-10,53,49,45,50,47,41,100,93,86,29.81,29.69,29.56,10,5,1,24,9,30,1.04,8,Rain,190
2013-3-11,48,39,30,47,34,24,100,88,75,29.93,29.71,29.64,10,8,2,22,14,31,0.02,8,Rain,255
2013-3-12,39,32,25,30,24,16,85,72,59,30.16,30.03,29.94,10,7,0,26,12,34,0.01,6,Fog-Snow,279
2013-3-13,36,29,22,18,16,13,81,60,38,30.40,30.30,30.15,10,10,10,18,9,26,T,3,,305
2013-3-14,45,33,21,30,24,17,84,65,45,30.39,30.25,30.10,10,10,9,18,8,25,0.00,3,,166
2013-3-15,53,41,29,41,33,26,92,72,52,30.08,29.89,29.69,10,8,5,12,6,15,0.00,1,,152
2013-3-16,44,38,31,40,31,25,100,82,64,30.14,29.91,29.66,10,6,1,16,8,24,0.00,7,,21
2013-3-17,38,34,30,27,24,20,78,69,59,30.19,30.09,29.91,10,10,10,20,12,26,0.01,7,,68
2013-3-18,40,33,25,33,28,13,100,78,55,29.96,29.78,29.69,10,7,1,24,12,33,0.02,8,Rain,31
2013-3-19,40,30,20,16,11,8,68,49,30,30.18,30.10,29.94,10,10,10,23,13,31,0.00,0,,290
2013-3-20,29,23,16,17,8,3,68,52,35,30.24,30.17,30.12,10,10,10,22,13,34,T,2,,312
2013-3-21,36,25,13,12,8,6,80,58,35,30.14,30.09,30.03,10,10,10,12,4,17,T,1,,322
2013-3-22,44,32,19,20,15,12,84,57,29,30.10,30.06,30.02,10,10,10,9,3,14,0.00,2,,81
2013-3-23,48,40,31,24,21,19,64,49,34,30.11,30.05,29.98,10,10,10,21,9,26,0.00,5,,57
2013-3-24,33,31,29,30,27,22,92,77,61,29.99,29.80,29.64,10,2,0,18,12,30,0.69,8,Fog-Snow,31
2013-3-25,37,33,28,27,25,20,92,78,64,30.16,29.91,29.76,10,6,1,18,9,27,0.07,8,Snow,340
2013-3-26,38,34,30,26,24,20,78,63,48,30.32,30.26,30.17,10,10,10,16,8,23,0.00,7,,302
2013-3-27,43,36,29,24,22,19,78,61,43,30.39,30.35,30.33,10,10,10,13,5,16,0.00,2,,276
2013-3-28,50,37,23,29,25,20,88,65,42,30.40,30.35,30.30,10,10,10,13,2,16,0.00,0,,181
2013-3-29,59,47,34,32,29,26,76,53,30,30.32,30.28,30.22,10,10,6,10,3,14,0.00,4,,69
2013-3-30,57,45,33,42,36,30,89,70,51,30.24,30.06,29.89,10,10,6,24,10,31,T,3,Rain,187
2013-3-31,61,50,38,43,38,24,86,58,30,29.96,29.86,29.81,10,8,5,20,11,30,0.00,6,,292